This is the latest recevied weather packets stored in our database for station/object KB8DOA. If no packets are shown the sender has not sent any weather packets the latest 10 day(s).
| Time | Temp. | Humidity | Pressure | Rain* | Wind** | Luminosity | Snow |
|---|---|---|---|---|---|---|---|
| 1777700703 | 25.56° C | 87% | 1012.5 hPa | 0 mm | - | 0 W/m² | - |
| 1777698303 | 25.56° C | 86% | 1012.6 hPa | 0 mm | - | 0 W/m² | - |
| 1777695304 | 25.56° C | 85% | 1013.2 hPa | 0 mm | - | 0 W/m² | - |
| 1777692905 | 26.11° C | 82% | 1012.8 hPa | 0 mm | - | 0 W/m² | - |
| 1777691404 | 26.67° C | 82% | 1012.7 hPa | 0 mm | - | 0 W/m² | - |
| 1777690204 | 26.67° C | 80% | 1012.6 hPa | 0 mm | - | 0 W/m² | - |
| 1777689604 | 26.67° C | 80% | 1012.1 hPa | 0 mm | - | 0 W/m² | - |
| 1777689304 | 26.67° C | 79% | 1011.8 hPa | 0 mm | - | 0 W/m² | - |
| 1777688404 | 26.67° C | 79% | 1012 hPa | 0 mm | - | 0 W/m² | - |
| 1777681204 | 27.22° C | 73% | 1009.6 hPa | 0 mm | - | 0 W/m² | - |
| 1777679704 | 27.22° C | 71% | 1009.1 hPa | 0 mm | - | 0 W/m² | - |
| 1777676104 | 27.78° C | 67% | 1009.6 hPa | 0 mm | - | 0 W/m² | - |
| 1777672804 | 27.78° C | 71% | 1009.3 hPa | 0 mm | - | 0 W/m² | - |
| 1777671904 | 27.78° C | 69% | 1009.5 hPa | 0 mm | - | 0 W/m² | - |
| 1777671604 | 27.78° C | 70% | 1008.9 hPa | 0 mm | - | 0 W/m² | - |
| 1777671004 | 27.78° C | 70% | 1009 hPa | 0 mm | - | 0 W/m² | - |
| 1777669803 | 27.78° C | 70% | 1009.2 hPa | 0 mm | - | 0 W/m² | - |
| 1777668004 | 27.78° C | 70% | 1009 hPa | 0 mm | - | 0 W/m² | - |
| 1777667704 | 27.78° C | 69% | 1009.2 hPa | 0 mm | - | 0 W/m² | - |
| 1777665904 | 28.33° C | 66% | 1010.2 hPa | 0 mm | - | 0 W/m² | - |
| 1777665603 | 28.33° C | 67% | 1010.5 hPa | 0 mm | - | 0 W/m² | - |
| 1777661704 | 28.33° C | 66% | 1011.5 hPa | 0 mm | - | 0 W/m² | - |
| 1777658404 | 28.89° C | 65% | 1011.6 hPa | 0 mm | - | 1277 W/m² | - |
| 1777657504 | 28.33° C | 66% | 1010.6 hPa | 0 mm | - | 1292 W/m² | - |
| 1777656003 | 28.33° C | 64% | 1012.1 hPa | 0 mm | - | 1297 W/m² | - |
* Rain latest hour (hover to see other rain measurements)
** Current wind speed in m/s (hover to see current wind gust speed)